Time,TemperatureF,DewpointF,PressureIn,WindDirection,WindDirectionDegrees,WindSpeedMPH,WindSpeedGustMPH,Humidity,HourlyPrecipIn,Conditions,Clouds,dailyrainin,SoftwareType,DateUTC
2013-12-17 00:08:00,25.5,25.3,29.93,SSW,202,4.7,-999.0,99,-99.99,,,0.00,Acu-Link.com,2013-12-17 05:08:00,
2013-12-17 00:23:00,25.9,25.7,29.93,ESE,112,2.7,-999.0,99,-99.99,,,0.00,Acu-Link.com,2013-12-17 05:23:00,
2013-12-17 00:38:00,25.9,25.7,29.91,ESE,112,3.2,-999.0,99,-99.99,,,0.00,Acu-Link.com,2013-12-17 05:38:00,
2013-12-17 00:53:00,26.1,25.9,29.91,South,180,2.2,-999.0,99,-99.99,,,0.00,Acu-Link.com,2013-12-17 05:53:00,
2013-12-17 01:09:00,26.1,25.9,29.90,SSE,157,2.2,-999.0,99,-99.99,,,0.00,Acu-Link.com,2013-12-17 06:09:00,
2013-12-17 01:24:00,26.4,26.2,29.89,ESE,112,2.2,-999.0,99,-99.99,,,0.00,Acu-Link.com,2013-12-17 06:24:00,
2013-12-17 01:39:00,26.2,26.0,29.89,SSE,157,0.0,-999.0,99,-99.99,,,0.00,Acu-Link.com,2013-12-17 06:39:00,
2013-12-17 01:54:00,26.4,26.2,29.89,ESE,112,2.7,-999.0,99,-99.99,,,0.00,Acu-Link.com,2013-12-17 06:54:00,
2013-12-17 02:10:00,26.2,26.0,29.89,ESE,112,2.7,-999.0,99,-99.99,,,0.00,Acu-Link.com,2013-12-17 07:10:00,
2013-12-17 02:25:00,26.8,26.6,29.89,SSW,202,4.2,-999.0,99,-99.99,,,0.00,Acu-Link.com,2013-12-17 07:25:00,
2013-12-17 02:40:00,28.0,27.8,29.89,ESE,112,3.2,-999.0,99,-99.99,,,0.00,Acu-Link.com,2013-12-17 07:40:00,
2013-12-17 02:55:00,28.8,28.6,29.90,SE,135,1.7,-999.0,99,-99.99,,,0.00,Acu-Link.com,2013-12-17 07:55:00,
2013-12-17 03:10:00,29.5,29.3,29.90,South,180,1.7,-999.0,99,-99.99,,,0.00,Acu-Link.com,2013-12-17 08:10:00,
2013-12-17 03:26:00,30.0,29.8,29.88,South,180,4.7,-999.0,99,-99.99,,,0.00,Acu-Link.com,2013-12-17 08:26:00,
2013-12-17 03:41:00,30.2,30.0,29.88,SSW,202,3.2,-999.0,99,-99.99,,,0.00,Acu-Link.com,2013-12-17 08:41:00,
2013-12-17 03:56:00,30.6,30.4,29.87,SW,225,4.7,-999.0,99,-99.99,,,0.00,Acu-Link.com,2013-12-17 08:56:00,
2013-12-17 04:11:00,31.1,30.9,29.87,SSE,157,2.7,-999.0,99,-99.99,,,0.00,Acu-Link.com,2013-12-17 09:11:00,
2013-12-17 04:51:00,32.4,32.2,29.85,SSE,157,3.2,-999.0,99,-99.99,,,0.00,Acu-Link.com,2013-12-17 09:51:00,
2013-12-17 05:06:00,32.9,32.7,29.85,SW,225,4.2,-999.0,99,-99.99,,,0.00,Acu-Link.com,2013-12-17 10:06:00,
2013-12-17 05:21:00,33.3,33.0,29.84,West,270,3.7,-999.0,99,-99.99,,,0.00,Acu-Link.com,2013-12-17 10:21:00,
2013-12-17 05:36:00,33.4,33.1,29.85,SSW,202,5.3,-999.0,99,-99.99,,,0.00,Acu-Link.com,2013-12-17 10:36:00,
2013-12-17 05:52:00,33.6,33.3,29.84,ESE,112,4.2,-999.0,99,-99.99,,,0.00,Acu-Link.com,2013-12-17 10:52:00,
2013-12-17 06:07:00,33.4,33.1,29.83,South,180,2.7,-999.0,99,-99.99,,,0.00,Acu-Link.com,2013-12-17 11:07:00,
2013-12-17 06:22:00,33.1,32.8,29.84,WSW,247,4.7,-999.0,99,-99.99,,,0.00,Acu-Link.com,2013-12-17 11:22:00,
2013-12-17 06:37:00,32.7,32.5,29.84,NW,315,4.7,-999.0,99,-99.99,,,0.00,Acu-Link.com,2013-12-17 11:37:00,
2013-12-17 06:52:00,32.5,32.3,29.85,SSW,202,6.3,-999.0,99,-99.99,,,0.00,Acu-Link.com,2013-12-17 11:52:00,
2013-12-17 07:08:00,32.5,32.3,29.84,SW,225,2.7,-999.0,99,-99.99,,,0.00,Acu-Link.com,2013-12-17 12:08:00,
2013-12-17 07:23:00,32.5,32.3,29.84,South,180,0.0,-999.0,99,-99.99,,,0.00,Acu-Link.com,2013-12-17 12:23:00,
2013-12-17 07:38:00,32.7,32.5,29.83,SSW,202,2.7,-999.0,99,-99.99,,,0.00,Acu-Link.com,2013-12-17 12:38:00,
2013-12-17 07:53:00,32.9,32.7,29.84,SSW,202,8.3,-999.0,99,-99.99,,,0.00,Acu-Link.com,2013-12-17 12:53:00,
2013-12-17 08:09:00,33.3,33.0,29.82,SSE,157,4.7,-999.0,99,-99.99,,,0.00,Acu-Link.com,2013-12-17 13:09:00,
2013-12-17 08:24:00,33.3,33.0,29.83,West,270,4.7,-999.0,99,-99.99,,,0.00,Acu-Link.com,2013-12-17 13:24:00,
2013-12-17 08:39:00,33.3,33.0,29.83,SW,225,6.8,-999.0,99,-99.99,,,0.00,Acu-Link.com,2013-12-17 13:39:00,
2013-12-17 08:54:00,33.4,33.1,29.84,West,270,6.3,-999.0,99,-99.99,,,0.00,Acu-Link.com,2013-12-17 13:54:00,
2013-12-17 09:09:00,33.6,33.3,29.84,SSW,202,8.3,-999.0,99,-99.99,,,0.00,Acu-Link.com,2013-12-17 14:09:00,
2013-12-17 09:25:00,33.6,33.3,29.84,WNW,292,6.8,-999.0,99,-99.99,,,0.00,Acu-Link.com,2013-12-17 14:25:00,
2013-12-17 09:40:00,33.8,33.5,29.84,South,180,2.2,-999.0,99,-99.99,,,0.00,Acu-Link.com,2013-12-17 14:40:00,
2013-12-17 09:55:00,34.0,33.7,29.83,SW,225,2.7,-999.0,99,-99.99,,,0.00,Acu-Link.com,2013-12-17 14:55:00,
2013-12-17 10:10:00,33.6,33.3,29.84,WNW,292,5.8,-999.0,99,-99.99,,,0.00,Acu-Link.com,2013-12-17 15:10:00,
2013-12-17 10:25:00,33.3,33.0,29.84,WNW,292,2.2,-999.0,99,-99.99,,,0.00,Acu-Link.com,2013-12-17 15:25:00,
2013-12-17 10:41:00,33.1,32.8,29.84,West,270,2.7,-999.0,99,-99.99,,,0.00,Acu-Link.com,2013-12-17 15:41:00,
2013-12-17 10:56:00,32.7,32.5,29.84,NW,315,5.3,-999.0,99,-99.99,,,0.00,Acu-Link.com,2013-12-17 15:56:00,
2013-12-17 11:11:00,32.5,32.3,29.85,West,270,3.2,-999.0,99,-99.99,,,0.00,Acu-Link.com,2013-12-17 16:11:00,
2013-12-17 11:26:00,32.2,32.0,29.85,West,270,3.2,-999.0,99,-99.99,,,0.00,Acu-Link.com,2013-12-17 16:26:00,
2013-12-17 11:41:00,32.0,31.8,29.84,NW,315,3.2,-999.0,99,-99.99,,,0.00,Acu-Link.com,2013-12-17 16:41:00,
2013-12-17 11:57:00,31.6,31.4,29.84,West,270,4.7,-999.0,99,-99.99,,,0.00,Acu-Link.com,2013-12-17 16:57:00,
2013-12-17 12:12:00,30.9,30.7,29.84,SSE,157,5.8,-999.0,99,-99.99,,,0.00,Acu-Link.com,2013-12-17 17:12:00,
2013-12-17 12:27:00,30.7,30.5,29.83,West,270,6.3,-999.0,99,-99.99,,,0.00,Acu-Link.com,2013-12-17 17:27:00,
2013-12-17 12:42:00,31.3,31.1,29.82,South,180,4.7,-999.0,99,-99.99,,,0.00,Acu-Link.com,2013-12-17 17:42:00,
2013-12-17 12:58:00,32.0,31.8,29.82,West,270,1.7,-999.0,99,-99.99,,,0.00,Acu-Link.com,2013-12-17 17:58:00,
2013-12-17 13:13:00,32.2,32.0,29.81,WNW,292,5.8,-999.0,99,-99.99,,,0.00,Acu-Link.com,2013-12-17 18:13:00,
2013-12-17 13:28:00,32.9,32.7,29.80,West,270,4.7,-999.0,99,-99.99,,,0.00,Acu-Link.com,2013-12-17 18:28:00,
2013-12-17 13:43:00,33.3,33.0,29.79,West,270,3.7,-999.0,99,-99.99,,,0.00,Acu-Link.com,2013-12-17 18:43:00,
2013-12-17 13:58:00,32.7,32.5,29.79,West,270,5.8,-999.0,99,-99.99,,,0.01,Acu-Link.com,2013-12-17 18:58:00,
2013-12-17 14:14:00,32.4,32.2,29.80,SSW,202,2.7,-999.0,99,-99.99,,,0.01,Acu-Link.com,2013-12-17 19:14:00,
2013-12-17 14:29:00,32.4,32.2,29.80,West,270,3.7,-999.0,99,-99.99,,,0.01,Acu-Link.com,2013-12-17 19:29:00,
2013-12-17 14:44:00,31.8,31.6,29.80,WSW,247,5.3,-999.0,99,-99.99,,,0.01,Acu-Link.com,2013-12-17 19:44:00,
2013-12-17 14:59:00,31.6,31.4,29.80,West,270,4.7,-999.0,99,-99.99,,,0.01,Acu-Link.com,2013-12-17 19:59:00,
2013-12-17 15:14:00,31.6,31.4,29.79,WNW,292,7.3,-999.0,99,-99.99,,,0.01,Acu-Link.com,2013-12-17 20:14:00,
2013-12-17 15:30:00,30.9,30.7,29.80,SSW,202,4.7,-999.0,99,-99.99,,,0.01,Acu-Link.com,2013-12-17 20:30:00,
2013-12-17 15:45:00,30.6,30.4,29.80,WSW,247,2.7,-999.0,99,-99.99,,,0.01,Acu-Link.com,2013-12-17 20:45:00,
2013-12-17 16:00:00,30.4,30.2,29.79,West,270,3.7,-999.0,99,-99.99,,,0.01,Acu-Link.com,2013-12-17 21:00:00,
2013-12-17 16:15:00,30.2,30.0,29.79,West,270,3.2,-999.0,99,-99.99,,,0.01,Acu-Link.com,2013-12-17 21:15:00,
2013-12-17 16:30:00,30.0,29.8,29.80,WSW,247,4.2,-999.0,99,-99.99,,,0.01,Acu-Link.com,2013-12-17 21:30:00,
2013-12-17 16:46:00,29.8,29.6,29.79,West,270,4.2,-999.0,99,-99.99,,,0.01,Acu-Link.com,2013-12-17 21:46:00,
2013-12-17 17:01:00,29.8,29.6,29.79,WNW,292,3.7,-999.0,99,-99.99,,,0.01,Acu-Link.com,2013-12-17 22:01:00,
2013-12-17 17:16:00,29.8,29.6,29.80,NW,315,4.7,-999.0,99,-99.99,,,0.01,Acu-Link.com,2013-12-17 22:16:00,
2013-12-17 17:32:00,29.8,29.6,29.80,West,270,4.2,-999.0,99,-99.99,,,0.01,Acu-Link.com,2013-12-17 22:32:00,
2013-12-17 17:47:00,29.7,29.5,29.81,WSW,247,4.7,-999.0,99,-99.99,,,0.01,Acu-Link.com,2013-12-17 22:47:00,
2013-12-17 18:02:00,29.5,29.3,29.81,West,270,5.3,-999.0,99,-99.99,,,0.01,Acu-Link.com,2013-12-17 23:02:00,
2013-12-17 18:17:00,29.3,29.1,29.80,West,270,5.3,-999.0,99,-99.99,,,0.01,Acu-Link.com,2013-12-17 23:17:00,
2013-12-17 18:32:00,29.1,28.9,29.81,WSW,247,5.8,-999.0,99,-99.99,,,0.01,Acu-Link.com,2013-12-17 23:32:00,
2013-12-17 18:48:00,29.3,29.1,29.81,West,270,4.7,-999.0,99,-99.99,,,0.01,Acu-Link.com,2013-12-17 23:48:00,
2013-12-17 19:03:00,29.1,28.9,29.80,West,270,4.2,-999.0,99,-99.99,,,0.01,Acu-Link.com,2013-12-18 00:03:00,
2013-12-17 19:18:00,28.9,28.7,29.79,West,270,4.2,-999.0,99,-99.99,,,0.01,Acu-Link.com,2013-12-18 00:18:00,
2013-12-17 19:34:00,29.1,28.9,29.81,West,270,7.3,-999.0,99,-99.99,,,0.01,Acu-Link.com,2013-12-18 00:34:00,
2013-12-17 19:49:00,29.3,29.1,29.81,SW,225,7.3,-999.0,99,-99.99,,,0.01,Acu-Link.com,2013-12-18 00:49:00,
2013-12-17 20:04:00,29.3,29.1,29.81,West,270,4.2,-999.0,99,-99.99,,,0.01,Acu-Link.com,2013-12-18 01:04:00,
2013-12-17 20:20:00,29.1,28.9,29.80,West,270,5.3,-999.0,99,-99.99,,,0.01,Acu-Link.com,2013-12-18 01:20:00,
2013-12-17 20:35:00,28.8,28.6,29.81,West,270,6.8,-999.0,99,-99.99,,,0.01,Acu-Link.com,2013-12-18 01:35:00,
2013-12-17 20:50:00,28.4,28.2,29.81,West,270,5.3,-999.0,99,-99.99,,,0.01,Acu-Link.com,2013-12-18 01:50:00,
2013-12-17 21:05:00,28.0,27.8,29.82,West,270,4.7,-999.0,99,-99.99,,,0.01,Acu-Link.com,2013-12-18 02:05:00,
2013-12-17 21:20:00,27.7,27.5,29.83,West,270,3.7,-999.0,99,-99.99,,,0.01,Acu-Link.com,2013-12-18 02:20:00,
2013-12-17 21:36:00,27.5,27.3,29.83,West,270,4.2,-999.0,99,-99.99,,,0.01,Acu-Link.com,2013-12-18 02:36:00,
2013-12-17 21:51:00,27.1,26.9,29.82,West,270,4.2,-999.0,99,-99.99,,,0.01,Acu-Link.com,2013-12-18 02:51:00,
2013-12-17 22:06:00,26.6,26.4,29.83,West,270,4.7,-999.0,99,-99.99,,,0.01,Acu-Link.com,2013-12-18 03:06:00,
2013-12-17 22:21:00,26.4,26.2,29.83,West,270,6.8,-999.0,99,-99.99,,,0.01,Acu-Link.com,2013-12-18 03:21:00,
2013-12-17 22:36:00,26.1,25.9,29.84,South,180,5.3,-999.0,99,-99.99,,,0.01,Acu-Link.com,2013-12-18 03:36:00,
2013-12-17 22:52:00,25.5,25.3,29.84,West,270,4.7,-999.0,99,-99.99,,,0.01,Acu-Link.com,2013-12-18 03:52:00,
2013-12-17 23:07:00,25.0,24.8,29.84,SSW,202,4.2,-999.0,99,-99.99,,,0.01,Acu-Link.com,2013-12-18 04:07:00,
2013-12-17 23:22:00,25.0,24.8,29.85,West,270,5.8,-999.0,99,-99.99,,,0.01,Acu-Link.com,2013-12-18 04:22:00,
2013-12-17 23:37:00,25.3,25.1,29.86,WNW,292,3.2,-999.0,99,-99.99,,,0.01,Acu-Link.com,2013-12-18 04:37:00,
2013-12-17 23:53:00,25.3,25.1,29.86,WNW,292,5.8,-999.0,99,-99.99,,,0.01,Acu-Link.com,2013-12-18 04:53:00,